Simultaneous Nadir Overpasses (SNOs) Predictions

Prediction of SNOs between AQUA and METOP-B Satellite Orbit:

Table of predicted SNOs for the next 14.0 days since TLE Epoch: 6/6/2015
Index Date (AQUA) Time (AQUA) Lat,Lon (AQUA) SZA (AQUA ) Date (METOP-B) Time (METOP-B) Lat,Lon (METOP-B) SZA (METOP-B ) Distance(km) Time Diff (sec)
1 06/07/2015 09:33:07 -73.47,-148.12 129.30 06/07/2015 09:31:56 -73.38,-149.32 129.34 39.52 71
2 06/07/2015 10:22:40 73.76, 18.91 51.00 06/07/2015 10:22:28 73.78, 18.93 51.03 3.22 12
3 06/07/2015 11:12:07 -73.83,-173.61 128.93 06/07/2015 11:13:09 -73.81,-173.67 128.95 2.77 62
4 06/10/2015 05:07:27 -73.67, -82.12 129.33 06/10/2015 05:06:14 -73.66, -82.28 129.32 5.14 73
5 06/10/2015 05:56:56 73.75, 85.35 50.76 06/10/2015 05:56:52 73.76, 85.29 50.77 2.43 4
6 06/10/2015 06:46:23 -73.82,-107.17 129.17 06/10/2015 06:47:32 -73.84,-107.20 129.16 2.47 69
7 06/13/2015 00:41:42 -73.69, -15.73 129.50 06/13/2015 00:40:36 -73.70, -15.81 129.48 2.42 66
8 06/13/2015 01:31:11 73.77, 151.73 50.59 06/13/2015 01:31:14 73.79, 151.76 50.61 2.32 3
9 06/13/2015 02:20:40 -73.95, -41.01 129.23 06/13/2015 02:21:52 -73.97, -40.48 129.23 16.51 72
10 06/15/2015 20:15:58 -73.74, 50.60 129.58 06/15/2015 20:14:59 -73.72, 50.66 129.59 2.62 59
11 06/15/2015 21:05:26 73.77,-141.83 50.45 06/15/2015 21:05:38 73.77,-141.90 50.45 2.15 12
12 06/15/2015 21:55:01 -74.25, 24.72 129.04 06/15/2015 21:56:10 -74.25, 26.60 129.11 56.67 69
13 06/18/2015 15:50:12 -73.71, 117.10 129.70 06/18/2015 15:49:23 -73.70, 117.01 129.69 3.02 49
14 06/18/2015 16:39:41 73.79, -75.45 50.40 06/18/2015 16:40:01 73.79, -75.44 50.40 0.27 20




NCC Satellite Simultaneous Nadir Overpasses (SNOs) Prediction Service
